Location: Kellogg
(38.0159°N, 90.0546°W)
Time: 14:51:27
(UTC+00:00)

Transit 2A - Pass Details

Date: 14 September 2024
Orbit: 590 x 960 km, 66.7° (Epoch: 07 October)

Event Time Altitude Azimuth Distance (km) Brightness Sun altitude
Rises 08:49:10 0° 339° (NNW) 3,637 9.7 -32.5°
Reaches altitude 10° 08:52:07 10° 350° (N) 2,666 9.0 -32.1°
Maximum altitude 08:57:34 31° 50° (NE) 1,546 8.0 -31.2°
Drops below altitude 10° 09:02:41 10° 112° (ESE) 2,493 9.0 -30.3°
Sets 09:05:20 0° 122° (ESE) 3,367 9.6 -29.9°
